Private Wetterstation Wechselburg
Wetterdaten: Montag, 23.06.2014
Datum Zeit Temp. +2m Bodentemp. Temp.+5cm Temp. Wind Windchill X Diff Temp. Feuchte +2m Feuchte +5cm Sonnenschein Luftdruck Regen Wind Richtung Richtung Sonnenschein UV Taupunkt Windchill Windben
23.06.2014 00:00 12,3 C 25,3 C 13,0 C 12,2 C 12,0 C 0,0 C 79 % 79 % 0 % 1019,9 hPa 0,0 l/m 0,0 km/h (0 Bft) S 180 0 min 0,0 UV-I 8,8 C 12,0 C 0,0 km/h (0 Bft)
23.06.2014 00:05 12,3 C 25,3 C 13,0 C 12,2 C 12,0 C 0,0 C 79 % 79 % 0 % 1019,9 hPa 0,0 l/m 0,0 km/h (0 Bft) S 180 0 min 0,0 UV-I 8,8 C 12,0 C 0,0 km/h (0 Bft)
23.06.2014 00:10 12,3 C 25,3 C 12,9 C 12,2 C 12,0 C 0,0 C 79 % 80 % 0 % 1019,9 hPa 0,0 l/m 0,0 km/h (0 Bft) S-SO 157 0 min 0,0 UV-I 8,8 C 12,0 C 0,0 km/h (0 Bft)
23.06.2014 00:15 12,4 C 25,3 C 12,9 C 12,3 C 12,0 C 0,0 C 79 % 79 % 0 % 1019,9 hPa 0,0 l/m 0,0 km/h (0 Bft) S-SO 157 0 min 0,0 UV-I 8,9 C 12,0 C 0,0 km/h (0 Bft)
23.06.2014 00:20 12,3 C 25,3 C 12,9 C 12,2 C 11,9 C 0,0 C 79 % 80 % 0 % 1019,9 hPa 0,0 l/m 0,0 km/h (0 Bft) S-SO 157 0 min 0,0 UV-I 8,8 C 11,9 C 0,0 km/h (0 Bft)
23.06.2014 00:25 12,3 C 25,3 C 12,8 C 12,1 C 11,8 C 0,0 C 79 % 80 % 0 % 1019,9 hPa 0,0 l/m 0,0 km/h (0 Bft) S-SO 157 0 min 0,0 UV-I 8,8 C 11,8 C 0,0 km/h (0 Bft)
23.06.2014 00:30 12,3 C 25,3 C 12,7 C 12,1 C 11,7 C 0,0 C 79 % 79 % 0 % 1019,9 hPa 0,0 l/m 0,0 km/h (0 Bft) W-SW 247 0 min 0,0 UV-I 8,8 C 11,7 C 0,0 km/h (0 Bft)
23.06.2014 00:35 12,3 C 25,2 C 12,7 C 12,1 C 11,6 C 0,0 C 79 % 80 % 0 % 1019,9 hPa 0,0 l/m 0,0 km/h (0 Bft) NW 315 0 min 0,0 UV-I 8,8 C 11,6 C 0,0 km/h (0 Bft)
23.06.2014 00:45 12,2 C 25,2 C 12,7 C 12,0 C 11,5 C 0,0 C 80 % 79 % 0 % 1020,1 hPa 0,0 l/m 0,3 km/h (0 Bft) W-SW 247 0 min 0,0 UV-I 8,9 C 11,5 C 0,0 km/h (0 Bft)
23.06.2014 00:50 12,3 C 25,2 C 12,6 C 12,0 C 11,4 C 0,0 C 79 % 79 % 0 % 1020,1 hPa 0,0 l/m 0,2 km/h (0 Bft) SW 225 0 min 0,0 UV-I 8,8 C 11,4 C 0,0 km/h (0 Bft)
23.06.2014 00:55 12,2 C 25,2 C 12,6 C 11,9 C 11,3 C 0,0 C 79 % 79 % 0 % 1020,1 hPa 0,0 l/m 0,0 km/h (0 Bft) SW 225 0 min 0,0 UV-I 8,7 C 11,3 C 0,0 km/h (0 Bft)
23.06.2014 01:00 12,1 C 25,2 C 12,5 C 11,8 C 11,2 C 0,0 C 80 % 80 % 0 % 1020,3 hPa 0,0 l/m 0,2 km/h (0 Bft) W-SW 247 0 min 0,0 UV-I 8,8 C 11,2 C 2,9 km/h (1 Bft)
23.06.2014 01:05 12,1 C 25,2 C 12,6 C 11,8 C 11,2 C 0,0 C 80 % 80 % 0 % 1020,3 hPa 0,0 l/m 0,3 km/h (0 Bft) SW 225 0 min 0,0 UV-I 8,8 C 11,2 C 0,0 km/h (0 Bft)
23.06.2014 01:10 12,1 C 25,2 C 12,6 C 11,8 C 11,1 C 0,0 C 80 % 80 % 0 % 1020,3 hPa 0,0 l/m 0,3 km/h (0 Bft) W-SW 247 0 min 0,0 UV-I 8,8 C 11,1 C 0,0 km/h (0 Bft)
23.06.2014 01:15 12,1 C 25,2 C 12,4 C 11,7 C 10,9 C 0,0 C 80 % 80 % 0 % 1020,3 hPa 0,0 l/m 0,0 km/h (0 Bft) SW 225 0 min 0,0 UV-I 8,8 C 10,9 C 0,0 km/h (0 Bft)
23.06.2014 01:20 11,9 C 25,2 C 12,3 C 11,5 C 10,6 C 0,0 C 80 % 80 % 0 % 1020,4 hPa 0,0 l/m 0,0 km/h (0 Bft) S 180 0 min 0,0 UV-I 8,6 C 10,6 C 0,0 km/h (0 Bft)
23.06.2014 01:25 11,8 C 25,2 C 12,3 C 11,4 C 10,5 C 0,0 C 80 % 81 % 0 % 1020,4 hPa 0,0 l/m 0,0 km/h (0 Bft) SW 225 0 min 0,0 UV-I 8,5 C 10,5 C 0,0 km/h (0 Bft)
23.06.2014 01:30 11,8 C 25,2 C 12,3 C 11,3 C 10,4 C 0,0 C 80 % 81 % 0 % 1020,4 hPa 0,0 l/m 0,0 km/h (0 Bft) SW 225 0 min 0,0 UV-I 8,5 C 10,4 C 0,0 km/h (0 Bft)
23.06.2014 01:35 11,7 C 25,2 C 12,0 C 11,3 C 10,4 C 0,0 C 80 % 81 % 0 % 1020,4 hPa 0,0 l/m 0,0 km/h (0 Bft) S 180 0 min 0,0 UV-I 8,4 C 10,4 C 0,0 km/h (0 Bft)
23.06.2014 01:40 11,7 C 25,2 C 12,1 C 11,2 C 10,3 C 0,0 C 81 % 81 % 0 % 1020,2 hPa 0,0 l/m 0,0 km/h (0 Bft) S-SW 202 0 min 0,0 UV-I 8,5 C 10,3 C 0,0 km/h (0 Bft)
23.06.2014 01:45 11,6 C 25,2 C 12,1 C 11,2 C 10,4 C 0,0 C 81 % 81 % 0 % 1020,2 hPa 0,0 l/m 0,0 km/h (0 Bft) S 180 0 min 0,0 UV-I 8,5 C 10,4 C 0,0 km/h (0 Bft)
23.06.2014 01:50 11,5 C 25,2 C 12,1 C 11,1 C 10,4 C 0,0 C 81 % 81 % 0 % 1020,2 hPa 0,0 l/m 0,0 km/h (0 Bft) SW 225 0 min 0,0 UV-I 8,4 C 10,4 C 0,0 km/h (0 Bft)
23.06.2014 01:55 11,5 C 25,2 C 12,1 C 11,2 C 10,5 C 0,0 C 82 % 81 % 0 % 1020,2 hPa 0,0 l/m 0,0 km/h (0 Bft) SW 225 0 min 0,0 UV-I 8,5 C 10,5 C 0,0 km/h (0 Bft)
23.06.2014 02:00 11,4 C 25,2 C 12,1 C 11,1 C 10,6 C 0,0 C 82 % 81 % 0 % 1020,4 hPa 0,0 l/m 0,0 km/h (0 Bft) SW 225 0 min 0,0 UV-I 8,4 C 10,6 C 0,0 km/h (0 Bft)
23.06.2014 02:05 11,4 C 25,1 C 12,1 C 11,2 C 10,8 C 0,0 C 82 % 81 % 0 % 1020,4 hPa 0,0 l/m 0,0 km/h (0 Bft) S-SW 202 0 min 0,0 UV-I 8,4 C 10,8 C 0,0 km/h (0 Bft)
23.06.2014 02:10 11,3 C 25,1 C 12,3 C 11,2 C 11,0 C 0,0 C 82 % 82 % 0 % 1020,4 hPa 0,0 l/m 0,0 km/h (0 Bft) S-SW 202 0 min 0,0 UV-I 8,3 C 11,0 C 0,0 km/h (0 Bft)
23.06.2014 02:15 11,3 C 25,1 C 12,3 C 11,3 C 11,2 C 0,0 C 83 % 82 % 0 % 1020,4 hPa 0,0 l/m 0,0 km/h (0 Bft) W 270 0 min 0,0 UV-I 8,5 C 11,2 C 0,0 km/h (0 Bft)
23.06.2014 02:20 11,3 C 25,2 C 12,3 C 11,3 C 11,2 C 0,0 C 83 % 81 % 0 % 1020,4 hPa 0,0 l/m 0,0 km/h (0 Bft) S-SO 157 0 min 0,0 UV-I 8,5 C 11,2 C 0,0 km/h (0 Bft)
23.06.2014 02:25 11,3 C 25,2 C 12,2 C 11,3 C 11,2 C 0,0 C 83 % 81 % 0 % 1020,4 hPa 0,0 l/m 0,2 km/h (0 Bft) W-SW 247 0 min 0,0 UV-I 8,5 C 11,2 C 0,0 km/h (0 Bft)
23.06.2014 02:30 11,3 C 25,2 C 12,3 C 11,3 C 11,2 C 0,0 C 83 % 82 % 0 % 1020,4 hPa 0,0 l/m 0,2 km/h (0 Bft) SW 225 0 min 0,0 UV-I 8,5 C 11,2 C 0,0 km/h (0 Bft)
23.06.2014 02:35 11,3 C 25,1 C 12,2 C 11,3 C 11,2 C 0,0 C 83 % 82 % 0 % 1020,4 hPa 0,0 l/m 0,0 km/h (0 Bft) SW 225 0 min 0,0 UV-I 8,5 C 11,2 C 0,0 km/h (0 Bft)
23.06.2014 02:40 11,2 C 25,1 C 12,2 C 11,2 C 11,2 C 0,0 C 83 % 82 % 0 % 1020,7 hPa 0,0 l/m 0,0 km/h (0 Bft) S 180 0 min 0,0 UV-I 8,4 C 11,2 C 0,0 km/h (0 Bft)
23.06.2014 02:45 11,3 C 25,1 C 12,3 C 11,4 C 11,4 C 0,1 C 83 % 82 % 0 % 1020,7 hPa 0,0 l/m 0,0 km/h (0 Bft) SW 225 0 min 0,0 UV-I 8,5 C 11,4 C 0,0 km/h (0 Bft)
23.06.2014 02:50 11,3 C 25,1 C 12,4 C 11,5 C 11,5 C 0,2 C 83 % 82 % 0 % 1020,7 hPa 0,0 l/m 0,2 km/h (0 Bft) W-SW 247 0 min 0,0 UV-I 8,5 C 11,5 C 3,2 km/h (1 Bft)
23.06.2014 02:55 11,4 C 25,1 C 12,5 C 11,6 C 11,6 C 0,2 C 84 % 82 % 0 % 1020,7 hPa 0,0 l/m 0,3 km/h (0 Bft) SW 225 0 min 0,0 UV-I 8,8 C 11,6 C 0,0 km/h (0 Bft)
23.06.2014 03:00 11,5 C 25,1 C 12,5 C 11,6 C 11,6 C 0,1 C 84 % 82 % 0 % 1020,6 hPa 0,0 l/m 0,2 km/h (0 Bft) SW 225 0 min 0,0 UV-I 8,9 C 11,6 C 0,0 km/h (0 Bft)
23.06.2014 03:05 11,4 C 25,1 C 12,4 C 11,4 C 11,4 C 0,0 C 84 % 82 % 0 % 1020,6 hPa 0,0 l/m 0,0 km/h (0 Bft) S-SW 202 0 min 0,0 UV-I 8,8 C 11,4 C 0,0 km/h (0 Bft)
23.06.2014 03:10 11,5 C 25,1 C 12,3 C 11,4 C 11,2 C 0,0 C 84 % 82 % 0 % 1020,6 hPa 0,0 l/m 0,0 km/h (0 Bft) SW 225 0 min 0,0 UV-I 8,9 C 11,2 C 0,0 km/h (0 Bft)
23.06.2014 03:15 11,4 C 25,1 C 12,3 C 11,3 C 11,1 C 0,0 C 83 % 82 % 0 % 1020,6 hPa 0,0 l/m 0,0 km/h (0 Bft) SW 225 0 min 0,0 UV-I 8,6 C 11,1 C 0,0 km/h (0 Bft)
23.06.2014 03:20 11,5 C 25,1 C 12,1 C 11,3 C 11,0 C 0,0 C 84 % 82 % 0 % 1020,5 hPa 0,0 l/m 0,0 km/h (0 Bft) S 180 0 min 0,0 UV-I 8,9 C 11,0 C 0,0 km/h (0 Bft)
23.06.2014 03:25 11,4 C 25,1 C 12,1 C 11,2 C 10,9 C 0,0 C 83 % 82 % 0 % 1020,5 hPa 0,0 l/m 0,0 km/h (0 Bft) S 180 0 min 0,0 UV-I 8,6 C 10,9 C 0,0 km/h (0 Bft)
23.06.2014 03:30 11,3 C 25,1 C 12,0 C 11,1 C 10,8 C 0,0 C 83 % 82 % 0 % 1020,5 hPa 0,0 l/m 0,0 km/h (0 Bft) S 180 0 min 0,0 UV-I 8,5 C 10,8 C 0,0 km/h (0 Bft)
23.06.2014 03:35 11,3 C 25,1 C 12,0 C 11,1 C 10,6 C 0,0 C 83 % 82 % 0 % 1020,5 hPa 0,0 l/m 0,0 km/h (0 Bft) W 270 0 min 0,0 UV-I 8,5 C 10,6 C 0,0 km/h (0 Bft)
23.06.2014 03:40 11,2 C 25,1 C 11,7 C 10,9 C 10,2 C 0,0 C 83 % 82 % 0 % 1020,5 hPa 0,0 l/m 0,0 km/h (0 Bft) SW 225 0 min 0,0 UV-I 8,4 C 10,2 C 0,0 km/h (0 Bft)
23.06.2014 03:45 11,2 C 25,1 C 11,6 C 10,8 C 10,0 C 0,0 C 83 % 82 % 0 % 1020,5 hPa 0,0 l/m 0,0 km/h (0 Bft) W 270 0 min 0,0 UV-I 8,4 C 10,0 C 0,0 km/h (0 Bft)
23.06.2014 03:50 11,1 C 25,1 C 11,5 C 10,6 C 9,6 C 0,0 C 83 % 83 % 0 % 1020,5 hPa 0,0 l/m 0,0 km/h (0 Bft) S 180 0 min 0,0 UV-I 8,3 C 9,6 C 0,0 km/h (0 Bft)
23.06.2014 03:55 10,9 C 25,1 C 11,2 C 10,5 C 9,6 C 0,0 C 83 % 83 % 0 % 1020,5 hPa 0,0 l/m 0,0 km/h (0 Bft) S 180 0 min 0,0 UV-I 8,1 C 9,6 C 0,0 km/h (0 Bft)
23.06.2014 04:00 10,7 C 25,1 C 11,2 C 10,2 C 9,2 C 0,0 C 83 % 83 % 0 % 1020,4 hPa 0,0 l/m 0,0 km/h (0 Bft) S 180 0 min 0,0 UV-I 7,9 C 9,2 C 0,0 km/h (0 Bft)
23.06.2014 04:05 10,7 C 25,1 C 11,1 C 10,2 C 9,1 C 0,0 C 83 % 83 % 0 % 1020,4 hPa 0,0 l/m 0,2 km/h (0 Bft) W-SW 247 0 min 0,0 UV-I 7,9 C 9,1 C 0,0 km/h (0 Bft)
23.06.2014 04:10 10,5 C 25,1 C 10,9 C 10,0 C 9,0 C 0,0 C 84 % 83 % 0 % 1020,4 hPa 0,0 l/m 0,2 km/h (0 Bft) W-NW 292 0 min 0,0 UV-I 7,9 C 9,0 C 0,0 km/h (0 Bft)
23.06.2014 04:15 10,4 C 25,1 C 10,8 C 9,9 C 8,9 C 0,0 C 84 % 83 % 0 % 1020,4 hPa 0,0 l/m 0,0 km/h (0 Bft) W 270 0 min 0,0 UV-I 7,8 C 8,9 C 0,0 km/h (0 Bft)
23.06.2014 04:20 10,3 C 25,1 C 10,9 C 9,8 C 8,8 C 0,0 C 84 % 84 % 0 % 1020,5 hPa 0,0 l/m 0,0 km/h (0 Bft) S-SW 202 0 min 0,0 UV-I 7,7 C 8,8 C 0,0 km/h (0 Bft)
23.06.2014 04:25 10,1 C 25,1 C 10,7 C 9,6 C 8,7 C 0,0 C 84 % 83 % 0 % 1020,5 hPa 0,0 l/m 0,0 km/h (0 Bft) S 180 0 min 0,0 UV-I 7,5 C 8,7 C 0,0 km/h (0 Bft)
23.06.2014 04:30 9,9 C 25,1 C 10,5 C 9,5 C 8,6 C 0,0 C 84 % 84 % 0 % 1020,5 hPa 0,0 l/m 0,0 km/h (0 Bft) SO 135 0 min 0,0 UV-I 7,3 C 8,6 C 0,0 km/h (0 Bft)
23.06.2014 04:35 9,9 C 25,1 C 10,5 C 9,4 C 8,4 C 0,0 C 84 % 84 % 0 % 1020,5 hPa 0,0 l/m 0,0 km/h (0 Bft) SO 135 0 min 0,0 UV-I 7,3 C 8,4 C 0,0 km/h (0 Bft)
23.06.2014 04:40 9,6 C 25,1 C 10,4 C 9,2 C 8,3 C 0,0 C 84 % 84 % 0 % 1020,6 hPa 0,0 l/m 0,0 km/h (0 Bft) O-SO 112 0 min 0,0 UV-I 7,0 C 8,3 C 0,0 km/h (0 Bft)
23.06.2014 04:45 9,5 C 25,1 C 10,3 C 9,1 C 8,2 C 0,0 C 84 % 84 % 0 % 1020,6 hPa 0,0 l/m 0,0 km/h (0 Bft) SO 135 0 min 0,0 UV-I 6,9 C 8,2 C 0,0 km/h (0 Bft)
23.06.2014 04:50 9,4 C 25,0 C 10,2 C 8,9 C 8,0 C 0,0 C 84 % 84 % 0 % 1020,6 hPa 0,0 l/m 0,0 km/h (0 Bft) S 180 0 min 0,0 UV-I 6,8 C 8,0 C 0,0 km/h (0 Bft)
23.06.2014 04:55 9,2 C 25,0 C 10,1 C 8,7 C 7,8 C 0,0 C 85 % 84 % 0 % 1020,6 hPa 0,0 l/m 0,0 km/h (0 Bft) SO 135 0 min 0,0 UV-I 6,8 C 7,8 C 0,0 km/h (0 Bft)
23.06.2014 05:00 9,0 C 25,0 C 9,9 C 8,6 C 7,7 C 0,0 C 84 % 84 % 0 % 1020,6 hPa 0,0 l/m 0,0 km/h (0 Bft) SW 225 0 min 0,0 UV-I 6,4 C 7,7 C 0,0 km/h (0 Bft)
23.06.2014 05:05 9,0 C 25,0 C 9,9 C 8,6 C 7,7 C 0,0 C 84 % 84 % 0 % 1020,6 hPa 0,0 l/m 0,0 km/h (0 Bft) SW 225 0 min 0,0 UV-I 6,4 C 7,7 C 0,0 km/h (0 Bft)
23.06.2014 05:10 8,8 C 25,0 C 9,9 C 8,4 C 7,6 C 0,0 C 84 % 84 % 0 % 1020,6 hPa 0,0 l/m 0,0 km/h (0 Bft) S-SW 202 0 min 0,0 UV-I 6,2 C 7,6 C 0,0 km/h (0 Bft)
23.06.2014 05:15 8,7 C 25,0 C 9,7 C 8,3 C 7,6 C 0,0 C 84 % 84 % 0 % 1020,6 hPa 0,0 l/m 0,0 km/h (0 Bft) S 180 0 min 0,0 UV-I 6,2 C 7,6 C 0,0 km/h (0 Bft)
23.06.2014 05:20 8,6 C 25,0 C 9,6 C 8,3 C 7,6 C 0,0 C 85 % 84 % 0 % 1020,7 hPa 0,0 l/m 0,0 km/h (0 Bft) O 90 0 min 0,0 UV-I 6,2 C 7,6 C 0,0 km/h (0 Bft)
23.06.2014 05:25 8,4 C 25,0 C 9,6 C 8,1 C 7,6 C 0,0 C 85 % 84 % 0 % 1020,7 hPa 0,0 l/m 0,0 km/h (0 Bft) O 90 0 min 0,0 UV-I 6,0 C 7,6 C 0,0 km/h (0 Bft)
23.06.2014 05:30 8,3 C 25,0 C 9,6 C 8,1 C 7,6 C 0,0 C 85 % 85 % 0 % 1020,7 hPa 0,0 l/m 0,0 km/h (0 Bft) O 90 0 min 0,0 UV-I 5,9 C 7,6 C 0,0 km/h (0 Bft)
23.06.2014 05:35 8,3 C 25,0 C 9,6 C 8,1 C 7,6 C 0,0 C 85 % 84 % 0 % 1020,7 hPa 0,0 l/m 0,0 km/h (0 Bft) O 90 0 min 0,0 UV-I 5,9 C 7,6 C 0,0 km/h (0 Bft)
23.06.2014 05:40 8,1 C 24,9 C 9,5 C 7,9 C 7,6 C 0,0 C 85 % 84 % 0 % 1020,6 hPa 0,0 l/m 0,0 km/h (0 Bft) S 180 0 min 0,0 UV-I 5,7 C 7,6 C 0,0 km/h (0 Bft)
23.06.2014 05:45 8,0 C 24,9 C 9,5 C 7,8 C 7,5 C 0,0 C 85 % 84 % 0 % 1020,6 hPa 0,0 l/m 0,0 km/h (0 Bft) S-SO 157 0 min 0,0 UV-I 5,6 C 7,5 C 0,0 km/h (0 Bft)
23.06.2014 05:50 7,9 C 24,9 C 9,5 C 7,8 C 7,6 C 0,0 C 86 % 85 % 0 % 1020,6 hPa 0,0 l/m 0,0 km/h (0 Bft) S 180 0 min 0,0 UV-I 5,7 C 7,6 C 0,0 km/h (0 Bft)
23.06.2014 05:55 7,9 C 25,0 C 9,5 C 7,8 C 7,7 C 0,0 C 86 % 85 % 0 % 1020,6 hPa 0,0 l/m 0,0 km/h (0 Bft) O-SO 112 0 min 0,0 UV-I 5,7 C 7,7 C 0,0 km/h (0 Bft)
23.06.2014 06:00 7,9 C 25,0 C 9,5 C 8,0 C 8,0 C 0,1 C 86 % 85 % 3 % 1020,9 hPa 0,0 l/m 0,0 km/h (0 Bft) O-SO 112 0 min 0,0 UV-I 5,7 C 8,0 C 0,0 km/h (0 Bft)
23.06.2014 06:05 7,9 C 25,0 C 9,6 C 8,2 C 8,2 C 0,3 C 86 % 85 % 8 % 1020,9 hPa 0,0 l/m 0,0 km/h (0 Bft) S 180 0 min 0,0 UV-I 5,7 C 8,2 C 0,0 km/h (0 Bft)
23.06.2014 06:10 7,9 C 25,0 C 9,6 C 8,4 C 8,4 C 0,5 C 86 % 85 % 13 % 1020,9 hPa 0,0 l/m 0,0 km/h (0 Bft) SW 225 0 min 0,0 UV-I 5,7 C 8,4 C 0,0 km/h (0 Bft)
23.06.2014 06:15 7,9 C 24,8 C 9,6 C 8,5 C 8,5 C 0,6 C 86 % 85 % 16 % 1020,9 hPa 0,0 l/m 0,0 km/h (0 Bft) SW 225 0 min 0,0 UV-I 5,7 C 8,5 C 0,0 km/h (0 Bft)
23.06.2014 06:20 7,8 C 24,8 C 9,9 C 8,6 C 8,6 C 0,8 C 86 % 85 % 21 % 1021,1 hPa 0,0 l/m 0,0 km/h (0 Bft) W-NW 292 0 min 0,0 UV-I 5,6 C 8,6 C 0,0 km/h (0 Bft)
23.06.2014 06:25 7,8 C 24,8 C 9,9 C 8,8 C 8,8 C 1,0 C 86 % 85 % 26 % 1021,1 hPa 0,0 l/m 0,0 km/h (0 Bft) W 270 0 min 0,0 UV-I 5,6 C 8,8 C 0,0 km/h (0 Bft)
23.06.2014 06:30 7,9 C 24,7 C 10,0 C 8,8 C 8,8 C 0,9 C 86 % 85 % 24 % 1021,1 hPa 0,0 l/m 0,0 km/h (0 Bft) SW 225 0 min 0,0 UV-I 5,7 C 8,8 C 0,0 km/h (0 Bft)
23.06.2014 06:35 7,9 C 24,7 C 10,1 C 8,9 C 8,9 C 1,0 C 86 % 85 % 26 % 1021,1 hPa 0,0 l/m 0,0 km/h (0 Bft) SW 225 0 min 0,0 UV-I 5,7 C 8,9 C 0,0 km/h (0 Bft)
23.06.2014 06:40 8,0 C 24,7 C 10,3 C 9,1 C 9,1 C 1,1 C 86 % 85 % 29 % 1020,7 hPa 0,0 l/m 0,0 km/h (0 Bft) SW 225 0 min 0,0 UV-I 5,8 C 9,1 C 0,0 km/h (0 Bft)
23.06.2014 06:45 8,1 C 24,7 C 10,4 C 9,3 C 9,3 C 1,2 C 87 % 84 % 32 % 1020,7 hPa 0,0 l/m 0,0 km/h (0 Bft) SW 225 0 min 0,0 UV-I 6,1 C 9,3 C 0,0 km/h (0 Bft)
23.06.2014 06:50 8,0 C 24,7 C 10,8 C 9,6 C 9,6 C 1,6 C 87 % 84 % 42 % 1020,7 hPa 0,0 l/m 0,0 km/h (0 Bft) SW 225 0 min 0,0 UV-I 6,0 C 9,6 C 0,0 km/h (0 Bft)
23.06.2014 06:55 8,1 C 24,7 C 11,1 C 9,9 C 9,9 C 1,8 C 87 % 84 % 47 % 1020,7 hPa 0,0 l/m 0,0 km/h (0 Bft) S-SW 202 0 min 0,0 UV-I 6,1 C 9,9 C 0,0 km/h (0 Bft)
23.06.2014 07:00 8,3 C 24,7 C 11,5 C 12,4 C 12,4 C 4,1 C 87 % 84 % 100 % 1021,3 hPa 0,0 l/m 0,2 km/h (0 Bft) W-SW 247 5 min 0,0 UV-I 6,3 C 12,4 C 0,0 km/h (0 Bft)
23.06.2014 07:05 8,5 C 24,7 C 11,6 C 14,9 C 14,9 C 6,4 C 87 % 83 % 100 % 1021,3 hPa 0,0 l/m 0,2 km/h (0 Bft) S-SW 202 5 min 0,0 UV-I 6,5 C 14,9 C 0,0 km/h (0 Bft)
23.06.2014 07:10 8,8 C 24,6 C 11,9 C 17,5 C 17,5 C 8,7 C 87 % 82 % 100 % 1021,3 hPa 0,0 l/m 0,2 km/h (0 Bft) W-SW 247 5 min 0,0 UV-I 6,8 C 17,5 C 0,0 km/h (0 Bft)
23.06.2014 07:15 9,1 C 24,6 C 12,0 C 18,7 C 18,7 C 9,6 C 87 % 82 % 100 % 1021,3 hPa 0,0 l/m 0,3 km/h (0 Bft) W-SW 247 5 min 0,0 UV-I 7,1 C 18,7 C 1,6 km/h (1 Bft)
23.06.2014 07:20 9,7 C 24,6 C 12,4 C 20,0 C 20,0 C 10,3 C 88 % 81 % 100 % 1021,4 hPa 0,0 l/m 0,3 km/h (0 Bft) W-NW 292 5 min 0,0 UV-I 7,8 C 20,0 C 0,0 km/h (0 Bft)
23.06.2014 07:25 10,3 C 24,6 C 12,7 C 20,5 C 20,5 C 10,2 C 87 % 81 % 100 % 1021,4 hPa 0,0 l/m 0,5 km/h (0 Bft) W-SW 247 5 min 0,1 UV-I 8,2 C 20,5 C 0,0 km/h (0 Bft)
23.06.2014 07:30 11,1 C 24,6 C 12,6 C 21,1 C 21,1 C 10,0 C 85 % 79 % 100 % 1021,4 hPa 0,0 l/m 0,6 km/h (0 Bft) NW 315 5 min 0,3 UV-I 8,7 C 21,1 C 0,0 km/h (0 Bft)
23.06.2014 07:35 11,5 C 24,6 C 12,7 C 21,4 C 21,4 C 9,9 C 84 % 78 % 100 % 1021,4 hPa 0,0 l/m 0,5 km/h (0 Bft) S 180 5 min 0,0 UV-I 8,9 C 21,4 C 1,8 km/h (1 Bft)
23.06.2014 07:40 12,0 C 24,6 C 12,8 C 21,9 C 21,9 C 9,9 C 82 % 78 % 100 % 1021,3 hPa 0,0 l/m 1,0 km/h (0 Bft) W-SW 247 5 min 0,0 UV-I 9,0 C 21,9 C 6,0 km/h (2 Bft)
23.06.2014 07:45 12,4 C 24,6 C 12,8 C 22,1 C 22,1 C 9,7 C 81 % 77 % 100 % 1021,3 hPa 0,0 l/m 1,6 km/h (1 Bft) S-SW 202 5 min 0,0 UV-I 9,2 C 22,1 C 2,7 km/h (1 Bft)
23.06.2014 07:50 12,8 C 24,5 C 12,9 C 22,3 C 22,3 C 9,5 C 79 % 78 % 100 % 1021,3 hPa 0,0 l/m 1,6 km/h (1 Bft) W-NW 292 5 min 0,0 UV-I 9,2 C 22,3 C 3,7 km/h (1 Bft)
23.06.2014 07:55 13,1 C 24,5 C 12,9 C 22,1 C 22,1 C 9,0 C 78 % 77 % 100 % 1021,3 hPa 0,0 l/m 1,6 km/h (1 Bft) N-NW 337 5 min 0,0 UV-I 9,4 C 22,1 C 2,3 km/h (1 Bft)
23.06.2014 08:00 13,3 C 24,5 C 12,8 C 22,3 C 22,3 C 9,0 C 76 % 76 % 100 % 1021,5 hPa 0,0 l/m 1,4 km/h (1 Bft) W-SW 247 5 min 0,0 UV-I 9,2 C 22,3 C 0,0 km/h (0 Bft)
23.06.2014 08:05 13,5 C 24,5 C 12,8 C 22,6 C 22,6 C 9,1 C 76 % 76 % 100 % 1021,5 hPa 0,0 l/m 1,3 km/h (1 Bft) N-NW 337 5 min 0,0 UV-I 9,4 C 22,6 C 0,0 km/h (0 Bft)
23.06.2014 08:10 13,5 C 24,5 C 12,9 C 22,2 C 22,2 C 8,7 C 73 % 76 % 100 % 1021,5 hPa 0,0 l/m 2,3 km/h (1 Bft) W-SW 247 5 min 0,0 UV-I 8,8 C 22,2 C 10,3 km/h (2 Bft)
23.06.2014 08:15 13,5 C 24,5 C 13,1 C 22,0 C 22,0 C 8,5 C 73 % 76 % 100 % 1021,5 hPa 0,0 l/m 2,7 km/h (1 Bft) N-NO 22 5 min 0,0 UV-I 8,8 C 22,0 C 2,4 km/h (1 Bft)
23.06.2014 08:20 13,6 C 24,5 C 13,0 C 21,4 C 21,4 C 7,8 C 72 % 75 % 100 % 1021,6 hPa 0,0 l/m 2,3 km/h (1 Bft) S 180 5 min 0,0 UV-I 8,6 C 21,4 C 3,5 km/h (1 Bft)
23.06.2014 08:25 13,5 C 24,5 C 13,1 C 21,4 C 21,4 C 7,9 C 72 % 75 % 100 % 1021,6 hPa 0,0 l/m 1,9 km/h (1 Bft) SW 225 5 min 0,0 UV-I 8,6 C 21,4 C 0,0 km/h (0 Bft)
23.06.2014 08:30 13,5 C 24,4 C 13,3 C 20,6 C 20,6 C 7,1 C 71 % 75 % 100 % 1021,6 hPa 0,0 l/m 3,1 km/h (1 Bft) SW 225 5 min 0,0 UV-I 8,3 C 20,6 C 9,5 km/h (2 Bft)
23.06.2014 08:35 13,5 C 24,4 C 13,6 C 21,2 C 21,2 C 7,7 C 71 % 74 % 100 % 1021,6 hPa 0,0 l/m 3,1 km/h (1 Bft) NW 315 5 min 0,0 UV-I 8,3 C 21,2 C 3,2 km/h (1 Bft)
23.06.2014 08:40 14,0 C 24,4 C 13,6 C 20,9 C 20,9 C 6,9 C 70 % 73 % 100 % 1021,5 hPa 0,0 l/m 2,3 km/h (1 Bft) W-NW 292 5 min 0,0 UV-I 8,6 C 20,9 C 2,7 km/h (1 Bft)
23.06.2014 08:45 14,1 C 24,4 C 13,7 C 20,3 C 20,3 C 6,2 C 69 % 72 % 100 % 1021,5 hPa 0,0 l/m 2,1 km/h (1 Bft) N-NW 337 5 min 0,0 UV-I 8,5 C 20,3 C 3,9 km/h (1 Bft)
23.06.2014 08:50 13,9 C 24,4 C 13,7 C 18,6 C 18,6 C 4,7 C 68 % 72 % 100 % 1021,5 hPa 0,0 l/m 2,7 km/h (1 Bft) NW 315 5 min 0,0 UV-I 8,1 C 18,6 C 3,2 km/h (1 Bft)
23.06.2014 08:55 13,6 C 24,4 C 13,7 C 17,4 C 17,4 C 3,8 C 68 % 72 % 100 % 1021,5 hPa 0,0 l/m 3,7 km/h (1 Bft) S 180 5 min 0,0 UV-I 7,8 C 17,4 C 6,0 km/h (2 Bft)
23.06.2014 09:00 13,5 C 24,4 C 13,7 C 16,4 C 16,4 C 2,9 C 70 % 72 % 76 % 1021,6 hPa 0,0 l/m 3,5 km/h (1 Bft) W-NW 292 0 min 0,0 UV-I 8,1 C 16,4 C 3,4 km/h (1 Bft)
23.06.2014 09:05 13,5 C 24,4 C 13,9 C 16,2 C 16,2 C 2,7 C 70 % 72 % 71 % 1021,6 hPa 0,0 l/m 3,5 km/h (1 Bft) W-SW 247 0 min 0,0 UV-I 8,1 C 16,2 C 6,1 km/h (2 Bft)
23.06.2014 09:10 13,4 C 24,4 C 13,9 C 15,9 C 15,9 C 2,5 C 69 % 72 % 66 % 1021,6 hPa 0,0 l/m 3,9 km/h (1 Bft) SW 225 0 min 0,0 UV-I 7,8 C 15,9 C 6,6 km/h (2 Bft)
23.06.2014 09:15 13,5 C 24,4 C 13,8 C 15,6 C 15,6 C 2,1 C 69 % 71 % 55 % 1021,6 hPa 0,0 l/m 4,0 km/h (1 Bft) N-NW 337 0 min 0,0 UV-I 7,9 C 15,6 C 2,4 km/h (1 Bft)
23.06.2014 09:20 13,4 C 24,4 C 13,9 C 15,3 C 15,3 C 1,9 C 69 % 71 % 50 % 1021,5 hPa 0,0 l/m 3,7 km/h (1 Bft) S 180 0 min 0,0 UV-I 7,8 C 15,3 C 2,9 km/h (1 Bft)
23.06.2014 09:25 13,4 C 24,4 C 13,9 C 15,3 C 15,3 C 1,9 C 69 % 71 % 50 % 1021,5 hPa 0,0 l/m 3,7 km/h (1 Bft) S 180 0 min 0,0 UV-I 7,8 C 15,3 C 7,1 km/h (2 Bft)
23.06.2014 09:30 13,4 C 24,4 C 14,0 C 15,4 C 15,4 C 2,0 C 69 % 71 % 53 % 1021,5 hPa 0,0 l/m 3,7 km/h (1 Bft) S-SO 157 0 min 0,0 UV-I 7,8 C 15,4 C 5,1 km/h (1 Bft)
23.06.2014 09:35 13,5 C 24,4 C 14,1 C 15,6 C 15,6 C 2,1 C 68 % 71 % 55 % 1021,5 hPa 0,0 l/m 4,2 km/h (1 Bft) S 180 0 min 0,0 UV-I 7,7 C 15,6 C 5,8 km/h (2 Bft)
23.06.2014 09:40 13,5 C 24,4 C 14,3 C 16,0 C 16,0 C 2,5 C 69 % 71 % 66 % 1021,8 hPa 0,0 l/m 3,9 km/h (1 Bft) W-NW 292 0 min 0,0 UV-I 7,9 C 16,0 C 3,5 km/h (1 Bft)
23.06.2014 09:45 13,7 C 24,4 C 14,4 C 16,4 C 16,4 C 2,7 C 69 % 71 % 71 % 1021,8 hPa 0,0 l/m 3,5 km/h (1 Bft) S 180 0 min 0,0 UV-I 8,1 C 16,4 C 3,4 km/h (1 Bft)
23.06.2014 09:50 13,7 C 24,4 C 14,5 C 17,0 C 17,0 C 3,3 C 69 % 70 % 87 % 1021,8 hPa 0,0 l/m 3,5 km/h (1 Bft) W-SW 247 5 min 0,0 UV-I 8,1 C 17,0 C 3,2 km/h (1 Bft)
23.06.2014 09:55 13,8 C 24,4 C 14,5 C 17,4 C 17,4 C 3,6 C 69 % 70 % 95 % 1021,8 hPa 0,0 l/m 3,5 km/h (1 Bft) W 270 5 min 0,0 UV-I 8,2 C 17,4 C 2,3 km/h (1 Bft)
23.06.2014 10:00 13,8 C 24,4 C 14,5 C 17,2 C 17,2 C 3,4 C 68 % 70 % 89 % 1021,7 hPa 0,0 l/m 3,4 km/h (1 Bft) SW 225 5 min 0,0 UV-I 8,0 C 17,2 C 5,6 km/h (1 Bft)
23.06.2014 10:05 13,7 C 24,4 C 14,5 C 17,3 C 17,3 C 3,6 C 68 % 69 % 95 % 1021,7 hPa 0,0 l/m 3,5 km/h (1 Bft) S-SW 202 5 min 0,0 UV-I 7,9 C 17,3 C 4,2 km/h (1 Bft)
23.06.2014 10:10 13,8 C 24,4 C 14,7 C 17,8 C 17,8 C 4,0 C 68 % 69 % 100 % 1021,7 hPa 0,0 l/m 2,9 km/h (1 Bft) W-SW 247 5 min 0,0 UV-I 8,0 C 17,8 C 3,9 km/h (1 Bft)
23.06.2014 10:15 14,0 C 24,4 C 14,8 C 18,6 C 18,6 C 4,6 C 68 % 69 % 100 % 1021,7 hPa 0,0 l/m 2,9 km/h (1 Bft) W-SW 247 5 min 0,0 UV-I 8,2 C 18,6 C 3,1 km/h (1 Bft)
23.06.2014 10:20 14,1 C 24,4 C 14,7 C 18,0 C 18,0 C 3,9 C 67 % 69 % 100 % 1021,7 hPa 0,0 l/m 4,3 km/h (1 Bft) S 180 5 min 0,0 UV-I 8,1 C 18,0 C 5,0 km/h (1 Bft)
23.06.2014 10:25 14,0 C 24,4 C 14,8 C 18,8 C 18,8 C 4,8 C 67 % 69 % 100 % 1021,7 hPa 0,0 l/m 5,0 km/h (1 Bft) W-SW 247 5 min 0,0 UV-I 8,0 C 18,8 C 6,4 km/h (2 Bft)
23.06.2014 10:30 14,2 C 24,4 C 15,0 C 19,6 C 19,6 C 5,4 C 67 % 68 % 100 % 1021,7 hPa 0,0 l/m 4,7 km/h (1 Bft) W-SW 247 5 min 0,0 UV-I 8,2 C 19,6 C 10,9 km/h (2 Bft)
23.06.2014 10:35 14,3 C 24,4 C 15,1 C 19,1 C 19,1 C 4,8 C 67 % 68 % 100 % 1021,7 hPa 0,0 l/m 4,3 km/h (1 Bft) W-SW 247 5 min 0,0 UV-I 8,3 C 19,1 C 6,4 km/h (2 Bft)
23.06.2014 10:40 14,3 C 24,4 C 15,1 C 18,9 C 18,9 C 4,6 C 66 % 68 % 100 % 1021,6 hPa 0,0 l/m 4,7 km/h (1 Bft) S 180 5 min 0,0 UV-I 8,0 C 18,9 C 4,8 km/h (1 Bft)
23.06.2014 10:45 14,3 C 24,4 C 14,9 C 18,2 C 18,2 C 3,9 C 66 % 68 % 100 % 1021,6 hPa 0,0 l/m 4,8 km/h (1 Bft) S 180 5 min 0,0 UV-I 8,0 C 18,2 C 6,1 km/h (2 Bft)
23.06.2014 10:50 14,2 C 24,4 C 14,9 C 17,8 C 17,8 C 3,6 C 67 % 68 % 95 % 1021,6 hPa 0,0 l/m 4,8 km/h (1 Bft) W 270 5 min 0,0 UV-I 8,2 C 17,8 C 6,1 km/h (2 Bft)
23.06.2014 10:55 14,3 C 24,4 C 15,0 C 17,8 C 17,8 C 3,5 C 67 % 68 % 92 % 1021,6 hPa 0,0 l/m 3,9 km/h (1 Bft) W-NW 292 5 min 0,0 UV-I 8,3 C 17,8 C 2,7 km/h (1 Bft)
23.06.2014 11:00 14,6 C 24,4 C 15,2 C 20,1 C 20,1 C 5,5 C 67 % 69 % 100 % 1021,6 hPa 0,0 l/m 3,5 km/h (1 Bft) S-SW 202 5 min 0,0 UV-I 8,5 C 20,1 C 3,1 km/h (1 Bft)
23.06.2014 11:05 14,8 C 24,4 C 15,1 C 20,7 C 20,7 C 5,9 C 66 % 69 % 100 % 1021,6 hPa 0,0 l/m 3,4 km/h (1 Bft) W-SW 247 5 min 0,0 UV-I 8,5 C 20,7 C 4,8 km/h (1 Bft)
23.06.2014 11:10 14,8 C 24,4 C 15,2 C 19,0 C 19,0 C 4,2 C 65 % 68 % 100 % 1021,6 hPa 0,0 l/m 3,9 km/h (1 Bft) W-SW 247 5 min 0,0 UV-I 8,3 C 19,0 C 4,3 km/h (1 Bft)
23.06.2014 11:15 14,7 C 24,4 C 15,1 C 18,5 C 18,5 C 3,8 C 65 % 68 % 100 % 1021,6 hPa 0,0 l/m 4,7 km/h (1 Bft) W-SW 247 5 min 0,0 UV-I 8,2 C 18,5 C 11,4 km/h (2 Bft)
23.06.2014 11:20 14,7 C 24,4 C 15,1 C 18,0 C 18,0 C 3,3 C 64 % 67 % 87 % 1021,4 hPa 0,0 l/m 4,5 km/h (1 Bft) S-SW 202 5 min 0,0 UV-I 8,0 C 18,0 C 5,5 km/h (1 Bft)
23.06.2014 11:25 14,7 C 24,4 C 15,4 C 19,5 C 19,5 C 4,8 C 64 % 67 % 100 % 1021,4 hPa 0,0 l/m 4,2 km/h (1 Bft) NO 45 5 min 0,0 UV-I 8,0 C 19,5 C 1,9 km/h (1 Bft)
23.06.2014 11:30 15,3 C 24,3 C 15,7 C 21,3 C 21,3 C 6,0 C 63 % 66 % 100 % 1021,4 hPa 0,0 l/m 3,9 km/h (1 Bft) W-SW 247 5 min 0,0 UV-I 8,3 C 21,3 C 7,1 km/h (2 Bft)
23.06.2014 11:35 15,3 C 24,3 C 15,9 C 21,2 C 21,2 C 5,9 C 62 % 65 % 100 % 1021,4 hPa 0,0 l/m 3,9 km/h (1 Bft) SW 225 5 min 0,0 UV-I 8,1 C 21,2 C 4,5 km/h (1 Bft)
23.06.2014 11:40 15,5 C 24,3 C 16,2 C 21,6 C 21,6 C 6,1 C 61 % 64 % 100 % 1021,2 hPa 0,0 l/m 5,5 km/h (1 Bft) S 180 5 min 0,0 UV-I 8,0 C 21,6 C 13,2 km/h (3 Bft)
23.06.2014 11:45 15,6 C 24,3 C 16,2 C 21,2 C 21,2 C 5,6 C 60 % 64 % 100 % 1021,2 hPa 0,0 l/m 5,5 km/h (1 Bft) S 180 5 min 0,0 UV-I 7,9 C 21,2 C 4,8 km/h (1 Bft)
23.06.2014 11:50 15,5 C 24,3 C 16,0 C 19,7 C 19,7 C 4,2 C 60 % 63 % 100 % 1021,2 hPa 0,0 l/m 4,7 km/h (1 Bft) W-SW 247 5 min 0,0 UV-I 7,8 C 19,7 C 6,6 km/h (2 Bft)
23.06.2014 11:55 15,5 C 24,3 C 16,0 C 19,2 C 19,2 C 3,7 C 60 % 63 % 97 % 1021,2 hPa 0,0 l/m 4,8 km/h (1 Bft) S 180 5 min 0,0 UV-I 7,8 C 19,2 C 7,1 km/h (2 Bft)
23.06.2014 12:00 15,4 C 24,3 C 16,1 C 19,4 C 19,4 C 4,0 C 60 % 64 % 100 % 1021,1 hPa 0,0 l/m 4,2 km/h (1 Bft) W-SW 247 5 min 0,0 UV-I 7,7 C 19,4 C 8,0 km/h (2 Bft)
23.06.2014 12:05 15,6 C 24,3 C 16,3 C 20,4 C 20,4 C 4,8 C 60 % 64 % 100 % 1021,1 hPa 0,0 l/m 3,7 km/h (1 Bft) S 180 5 min 0,0 UV-I 7,9 C 20,4 C 7,1 km/h (2 Bft)
23.06.2014 12:10 15,8 C 24,3 C 16,5 C 20,4 C 20,4 C 4,6 C 60 % 63 % 100 % 1021,1 hPa 0,0 l/m 4,8 km/h (1 Bft) S 180 5 min 0,0 UV-I 8,1 C 20,4 C 13,8 km/h (3 Bft)
23.06.2014 12:15 15,9 C 24,3 C 16,4 C 19,8 C 19,8 C 3,9 C 59 % 62 % 100 % 1021,1 hPa 0,0 l/m 5,8 km/h (2 Bft) SW 225 5 min 0,0 UV-I 7,9 C 19,8 C 6,4 km/h (2 Bft)
23.06.2014 12:20 16,0 C 24,3 C 16,5 C 20,0 C 20,0 C 4,0 C 59 % 62 % 100 % 1020,8 hPa 0,0 l/m 4,7 km/h (1 Bft) SW 225 5 min 0,0 UV-I 8,0 C 20,0 C 6,4 km/h (2 Bft)
23.06.2014 12:25 16,0 C 24,3 C 16,5 C 19,7 C 19,7 C 3,7 C 58 % 61 % 97 % 1020,8 hPa 0,0 l/m 4,3 km/h (1 Bft) S 180 5 min 0,0 UV-I 7,7 C 19,7 C 5,0 km/h (1 Bft)
23.06.2014 12:30 16,1 C 24,3 C 16,7 C 19,4 C 19,4 C 3,3 C 58 % 61 % 87 % 1020,8 hPa 0,0 l/m 5,3 km/h (1 Bft) S 180 5 min 0,0 UV-I 7,8 C 19,4 C 16,3 km/h (3 Bft)
23.06.2014 12:35 16,1 C 24,3 C 16,8 C 19,7 C 19,7 C 3,6 C 59 % 62 % 95 % 1020,8 hPa 0,0 l/m 5,6 km/h (1 Bft) S-SO 157 5 min 0,0 UV-I 8,1 C 19,7 C 8,0 km/h (2 Bft)
23.06.2014 12:40 16,6 C 24,4 C 17,3 C 21,4 C 21,4 C 4,8 C 59 % 60 % 100 % 1020,8 hPa 0,0 l/m 4,8 km/h (1 Bft) NW 315 5 min 0,0 UV-I 8,6 C 21,4 C 3,5 km/h (1 Bft)
23.06.2014 12:45 17,2 C 24,4 C 17,5 C 22,6 C 22,6 C 5,4 C 58 % 60 % 100 % 1020,8 hPa 0,0 l/m 3,5 km/h (1 Bft) S 180 5 min 0,0 UV-I 8,9 C 22,6 C 7,2 km/h (2 Bft)
23.06.2014 12:50 17,5 C 24,4 C 17,5 C 22,2 C 22,2 C 4,7 C 56 % 60 % 100 % 1020,8 hPa 0,0 l/m 2,4 km/h (1 Bft) W-SW 247 5 min 0,0 UV-I 8,6 C 22,2 C 3,1 km/h (1 Bft)
23.06.2014 12:55 17,4 C 24,4 C 17,5 C 22,5 C 22,5 C 5,1 C 55 % 59 % 100 % 1020,8 hPa 0,0 l/m 3,5 km/h (1 Bft) W 270 5 min 0,0 UV-I 8,3 C 22,5 C 6,8 km/h (2 Bft)
23.06.2014 13:00 17,3 C 24,4 C 17,4 C 21,3 C 21,3 C 4,0 C 55 % 58 % 100 % 1020,4 hPa 0,0 l/m 3,7 km/h (1 Bft) W-SW 247 5 min 0,0 UV-I 8,2 C 21,3 C 3,1 km/h (1 Bft)
23.06.2014 13:05 17,2 C 24,4 C 17,5 C 21,1 C 21,1 C 3,9 C 56 % 59 % 100 % 1020,4 hPa 0,0 l/m 3,5 km/h (1 Bft) NW 315 5 min 0,0 UV-I 8,3 C 21,1 C 1,9 km/h (1 Bft)
23.06.2014 13:10 17,5 C 24,4 C 17,7 C 22,0 C 22,0 C 4,5 C 55 % 59 % 100 % 1020,4 hPa 0,0 l/m 3,4 km/h (1 Bft) SW 225 5 min 0,0 UV-I 8,4 C 22,0 C 4,3 km/h (1 Bft)
23.06.2014 13:15 17,6 C 24,4 C 17,7 C 22,1 C 22,1 C 4,5 C 54 % 58 % 100 % 1020,4 hPa 0,0 l/m 3,7 km/h (1 Bft) S-SW 202 5 min 0,0 UV-I 8,2 C 22,1 C 5,3 km/h (1 Bft)
23.06.2014 13:20 17,5 C 24,4 C 17,6 C 21,2 C 21,2 C 3,7 C 55 % 59 % 97 % 1020,6 hPa 0,0 l/m 4,7 km/h (1 Bft) S 180 5 min 0,0 UV-I 8,4 C 21,2 C 9,0 km/h (2 Bft)
23.06.2014 13:25 17,5 C 24,4 C 17,9 C 21,6 C 21,6 C 4,1 C 56 % 59 % 100 % 1020,6 hPa 0,0 l/m 4,5 km/h (1 Bft) W-SW 247 5 min 0,0 UV-I 8,6 C 21,6 C 8,7 km/h (2 Bft)
23.06.2014 13:30 17,7 C 24,4 C 17,9 C 22,1 C 22,1 C 4,4 C 55 % 58 % 100 % 1020,6 hPa 0,0 l/m 4,0 km/h (1 Bft) W-NW 292 5 min 0,0 UV-I 8,5 C 22,1 C 3,7 km/h (1 Bft)
23.06.2014 13:35 17,8 C 24,4 C 18,0 C 22,0 C 22,0 C 4,2 C 54 % 58 % 100 % 1020,6 hPa 0,0 l/m 3,9 km/h (1 Bft) S-SW 202 5 min 0,0 UV-I 8,4 C 22,0 C 9,5 km/h (2 Bft)
23.06.2014 13:40 17,9 C 24,4 C 18,0 C 22,1 C 22,1 C 4,2 C 54 % 58 % 100 % 1020,3 hPa 0,0 l/m 3,2 km/h (1 Bft) W 270 5 min 0,0 UV-I 8,5 C 22,1 C 3,9 km/h (1 Bft)
23.06.2014 13:45 17,6 C 24,4 C 17,9 C 21,5 C 21,5 C 3,9 C 54 % 58 % 100 % 1020,3 hPa 0,0 l/m 4,2 km/h (1 Bft) W-SW 247 5 min 0,0 UV-I 8,2 C 21,5 C 9,7 km/h (2 Bft)
23.06.2014 13:50 17,7 C 24,4 C 18,0 C 21,2 C 21,2 C 3,5 C 56 % 59 % 92 % 1020,3 hPa 0,0 l/m 4,5 km/h (1 Bft) S-SO 157 5 min 0,0 UV-I 8,8 C 21,2 C 4,0 km/h (1 Bft)
23.06.2014 13:55 17,8 C 24,4 C 18,1 C 21,5 C 21,5 C 3,7 C 55 % 59 % 97 % 1020,3 hPa 0,0 l/m 4,2 km/h (1 Bft) W-SW 247 5 min 0,0 UV-I 8,6 C 21,5 C 6,0 km/h (2 Bft)
23.06.2014 14:00 18,1 C 24,4 C 18,2 C 21,7 C 21,7 C 3,6 C 53 % 57 % 95 % 1020,8 hPa 0,0 l/m 3,9 km/h (1 Bft) S 180 5 min 0,0 UV-I 8,4 C 21,7 C 5,3 km/h (1 Bft)
23.06.2014 14:05 18,3 C 24,5 C 18,3 C 22,1 C 22,1 C 3,8 C 53 % 58 % 100 % 1020,8 hPa 0,0 l/m 4,0 km/h (1 Bft) O-NO 67 5 min 0,0 UV-I 8,6 C 22,1 C 5,1 km/h (1 Bft)
23.06.2014 14:10 18,4 C 24,5 C 18,5 C 22,5 C 22,5 C 4,1 C 53 % 57 % 100 % 1020,8 hPa 0,0 l/m 3,9 km/h (1 Bft) W 270 5 min 0,0 UV-I 8,6 C 22,5 C 2,3 km/h (1 Bft)
23.06.2014 14:15 18,5 C 24,4 C 18,5 C 22,4 C 22,4 C 3,9 C 53 % 57 % 100 % 1020,8 hPa 0,0 l/m 4,5 km/h (1 Bft) S 180 5 min 0,0 UV-I 8,7 C 22,4 C 7,9 km/h (2 Bft)
23.06.2014 14:20 18,0 C 24,5 C 18,4 C 21,5 C 21,5 C 3,5 C 52 % 56 % 92 % 1020,1 hPa 0,0 l/m 4,5 km/h (1 Bft) S 180 5 min 0,0 UV-I 8,0 C 21,5 C 2,4 km/h (1 Bft)
23.06.2014 14:25 17,9 C 24,5 C 18,1 C 20,9 C 20,9 C 3,0 C 53 % 57 % 79 % 1020,1 hPa 0,0 l/m 4,2 km/h (1 Bft) W-SW 247 0 min 0,0 UV-I 8,2 C 20,9 C 5,8 km/h (2 Bft)
23.06.2014 14:30 17,7 C 24,5 C 18,1 C 20,6 C 20,6 C 2,9 C 54 % 58 % 76 % 1020,1 hPa 0,0 l/m 4,0 km/h (1 Bft) SW 225 0 min 0,0 UV-I 8,3 C 20,6 C 6,1 km/h (2 Bft)
23.06.2014 14:35 17,9 C 24,5 C 18,4 C 20,8 C 20,8 C 2,9 C 54 % 57 % 76 % 1020,1 hPa 0,0 l/m 5,1 km/h (1 Bft) SW 225 0 min 0,0 UV-I 8,5 C 20,8 C 4,7 km/h (1 Bft)
23.06.2014 14:40 18,4 C 24,4 C 18,9 C 22,1 C 22,1 C 3,7 C 53 % 56 % 97 % 1020,2 hPa 0,0 l/m 5,3 km/h (1 Bft) SW 225 5 min 0,0 UV-I 8,6 C 22,1 C 6,8 km/h (2 Bft)
23.06.2014 14:45 18,5 C 24,4 C 18,6 C 22,1 C 22,1 C 3,6 C 52 % 55 % 95 % 1020,2 hPa 0,0 l/m 4,8 km/h (1 Bft) S 180 5 min 0,0 UV-I 8,5 C 22,1 C 2,9 km/h (1 Bft)
23.06.2014 14:50 18,7 C 24,4 C 18,7 C 22,1 C 22,1 C 3,4 C 52 % 56 % 89 % 1020,2 hPa 0,0 l/m 5,0 km/h (1 Bft) W-SW 247 5 min 0,0 UV-I 8,6 C 22,1 C 7,2 km/h (2 Bft)
23.06.2014 14:55 18,6 C 24,4 C 18,8 C 22,3 C 22,3 C 3,7 C 52 % 56 % 97 % 1020,2 hPa 0,0 l/m 5,0 km/h (1 Bft) S-SW 202 5 min 0,0 UV-I 8,5 C 22,3 C 6,3 km/h (2 Bft)
23.06.2014 15:00 19,3 C 24,5 C 19,1 C 23,4 C 23,4 C 4,1 C 52 % 56 % 100 % 1020,1 hPa 0,0 l/m 4,5 km/h (1 Bft) SW 225 5 min 0,0 UV-I 9,2 C 23,4 C 5,8 km/h (2 Bft)
23.06.2014 15:05 19,6 C 24,5 C 19,2 C 24,2 C 24,2 C 4,6 C 51 % 55 % 100 % 1020,1 hPa 0,0 l/m 3,9 km/h (1 Bft) W-SW 247 5 min 0,0 UV-I 9,2 C 24,2 C 10,3 km/h (2 Bft)
23.06.2014 15:10 20,0 C 24,5 C 19,1 C 24,5 C 24,5 C 4,5 C 49 % 53 % 100 % 1020,1 hPa 0,0 l/m 3,5 km/h (1 Bft) O 90 5 min 0,0 UV-I 9,0 C 24,5 C 1,9 km/h (1 Bft)
23.06.2014 15:15 19,9 C 24,5 C 18,9 C 24,5 C 24,5 C 4,6 C 50 % 55 % 100 % 1020,1 hPa 0,0 l/m 3,5 km/h (1 Bft) S-SW 202 5 min 0,0 UV-I 9,2 C 24,5 C 5,8 km/h (2 Bft)
23.06.2014 15:20 19,9 C 24,5 C 19,3 C 24,3 C 24,3 C 4,4 C 50 % 55 % 100 % 1019,8 hPa 0,0 l/m 4,3 km/h (1 Bft) S 180 5 min 0,0 UV-I 9,2 C 24,3 C 3,9 km/h (1 Bft)
23.06.2014 15:25 20,1 C 24,5 C 19,5 C 24,4 C 24,4 C 4,3 C 50 % 55 % 100 % 1019,8 hPa 0,0 l/m 4,5 km/h (1 Bft) W-SW 247 5 min 0,0 UV-I 9,3 C 24,4 C 4,2 km/h (1 Bft)
23.06.2014 15:30 20,6 C 24,5 C 19,5 C 24,5 C 24,5 C 3,9 C 47 % 54 % 100 % 1019,8 hPa 0,0 l/m 3,4 km/h (1 Bft) S-SW 202 5 min 0,0 UV-I 8,9 C 24,5 C 2,1 km/h (1 Bft)
23.06.2014 15:35 20,5 C 24,5 C 19,5 C 24,4 C 24,4 C 3,9 C 47 % 53 % 100 % 1019,8 hPa 0,0 l/m 4,5 km/h (1 Bft) S 180 5 min 0,0 UV-I 8,8 C 24,4 C 5,3 km/h (1 Bft)
23.06.2014 15:40 20,1 C 24,5 C 19,6 C 24,2 C 24,2 C 4,1 C 48 % 54 % 100 % 1019,7 hPa 0,0 l/m 4,3 km/h (1 Bft) S-SO 157 5 min 0,0 UV-I 8,7 C 24,2 C 2,9 km/h (1 Bft)
23.06.2014 15:45 20,5 C 24,5 C 19,9 C 24,7 C 24,7 C 4,2 C 49 % 54 % 100 % 1019,7 hPa 0,0 l/m 3,9 km/h (1 Bft) W 270 5 min 0,0 UV-I 9,4 C 24,7 C 4,3 km/h (1 Bft)
23.06.2014 15:50 20,8 C 24,6 C 20,0 C 25,2 C 25,2 C 4,4 C 49 % 54 % 100 % 1019,7 hPa 0,0 l/m 4,0 km/h (1 Bft) W 270 5 min 0,0 UV-I 9,7 C 25,2 C 10,3 km/h (2 Bft)
23.06.2014 15:55 20,7 C 24,6 C 20,0 C 25,2 C 25,2 C 4,5 C 47 % 52 % 100 % 1019,7 hPa 0,0 l/m 4,2 km/h (1 Bft) O-NO 67 5 min 0,0 UV-I 9,0 C 25,2 C 6,3 km/h (2 Bft)
23.06.2014 16:00 20,6 C 24,6 C 20,2 C 25,1 C 25,1 C 4,5 C 47 % 53 % 100 % 1019,1 hPa 0,0 l/m 3,9 km/h (1 Bft) W-SW 247 5 min 0,0 UV-I 8,9 C 25,1 C 3,5 km/h (1 Bft)
23.06.2014 16:05 20,7 C 24,6 C 19,9 C 24,9 C 24,9 C 4,2 C 47 % 52 % 100 % 1019,1 hPa 0,0 l/m 3,7 km/h (1 Bft) SW 225 5 min 0,0 UV-I 9,0 C 24,9 C 8,0 km/h (2 Bft)
23.06.2014 16:11 20,8 C 24,6 C 19,9 C 25,0 C 25,0 C 4,2 C 46 % 51 % 100 % 1019,1 hPa 0,0 l/m 3,1 km/h (1 Bft) S-SW 202 6 min 0,0 UV-I 8,8 C 25,0 C 3,2 km/h (1 Bft)
23.06.2014 16:15 20,8 C 24,6 C 20,1 C 25,2 C 25,2 C 4,4 C 46 % 52 % 100 % 1019,1 hPa 0,0 l/m 4,3 km/h (1 Bft) W 270 4 min 0,0 UV-I 8,8 C 25,2 C 8,5 km/h (2 Bft)
23.06.2014 16:20 20,7 C 24,6 C 20,0 C 25,1 C 25,1 C 4,4 C 46 % 49 % 100 % 1019,5 hPa 0,0 l/m 4,2 km/h (1 Bft) S-SO 157 5 min 0,0 UV-I 8,7 C 25,1 C 1,8 km/h (1 Bft)
23.06.2014 16:25 20,8 C 24,6 C 20,3 C 25,3 C 25,3 C 4,5 C 47 % 52 % 100 % 1019,5 hPa 0,0 l/m 3,7 km/h (1 Bft) S 180 5 min 0,0 UV-I 9,1 C 25,3 C 3,5 km/h (1 Bft)
23.06.2014 16:30 21,0 C 24,6 C 20,5 C 25,6 C 25,6 C 4,6 C 47 % 52 % 100 % 1019,5 hPa 0,0 l/m 3,5 km/h (1 Bft) S 180 5 min 0,0 UV-I 9,3 C 25,6 C 4,5 km/h (1 Bft)
23.06.2014 16:35 21,2 C 24,6 C 20,7 C 25,5 C 25,5 C 4,3 C 46 % 52 % 100 % 1019,5 hPa 0,0 l/m 3,9 km/h (1 Bft) SW 225 5 min 0,0 UV-I 9,1 C 25,5 C 4,7 km/h (1 Bft)
23.06.2014 16:40 21,6 C 24,7 C 20,7 C 25,5 C 25,5 C 3,9 C 46 % 51 % 100 % 1019,2 hPa 0,0 l/m 3,9 km/h (1 Bft) W-SW 247 5 min 0,0 UV-I 9,5 C 25,5 C 4,7 km/h (1 Bft)
23.06.2014 16:45 21,7 C 24,7 C 20,7 C 25,4 C 25,4 C 3,7 C 45 % 51 % 97 % 1019,2 hPa 0,0 l/m 4,0 km/h (1 Bft) S-SO 157 5 min 0,0 UV-I 9,2 C 25,4 C 6,1 km/h (2 Bft)
23.06.2014 16:50 21,5 C 24,7 C 20,6 C 25,2 C 25,2 C 3,7 C 45 % 51 % 97 % 1019,2 hPa 0,0 l/m 4,8 km/h (1 Bft) S 180 5 min 0,0 UV-I 9,1 C 25,2 C 3,5 km/h (1 Bft)
23.06.2014 16:55 21,3 C 24,7 C 20,7 C 25,3 C 25,3 C 4,0 C 44 % 51 % 100 % 1019,2 hPa 0,0 l/m 4,7 km/h (1 Bft) W 270 5 min 0,0 UV-I 8,5 C 25,3 C 8,5 km/h (2 Bft)
23.06.2014 17:00 20,9 C 24,7 C 20,4 C 25,4 C 25,4 C 4,5 C 45 % 50 % 100 % 1019,3 hPa 0,0 l/m 3,7 km/h (1 Bft) W-SW 247 5 min 0,0 UV-I 8,5 C 25,4 C 6,9 km/h (2 Bft)
23.06.2014 17:05 20,7 C 24,7 C 20,4 C 25,5 C 25,5 C 4,8 C 45 % 50 % 100 % 1019,3 hPa 0,0 l/m 3,7 km/h (1 Bft) N-NO 22 5 min 0,0 UV-I 8,3 C 25,5 C 2,3 km/h (1 Bft)
23.06.2014 17:10 20,6 C 24,7 C 20,0 C 26,1 C 26,1 C 5,5 C 46 % 50 % 100 % 1019,3 hPa 0,0 l/m 3,1 km/h (1 Bft) S-SW 202 5 min 0,0 UV-I 8,6 C 26,1 C 9,7 km/h (2 Bft)
23.06.2014 17:15 20,5 C 24,7 C 20,1 C 26,0 C 26,0 C 5,5 C 46 % 50 % 100 % 1019,3 hPa 0,0 l/m 2,9 km/h (1 Bft) S 180 5 min 0,0 UV-I 8,5 C 26,0 C 3,1 km/h (1 Bft)
23.06.2014 17:20 20,3 C 24,7 C 20,3 C 25,9 C 25,9 C 5,6 C 46 % 50 % 100 % 1019,3 hPa 0,0 l/m 3,7 km/h (1 Bft) W-NW 292 5 min 0,0 UV-I 8,3 C 25,9 C 5,8 km/h (2 Bft)
23.06.2014 17:25 20,3 C 24,8 C 20,2 C 25,7 C 25,7 C 5,4 C 47 % 51 % 100 % 1019,3 hPa 0,0 l/m 4,0 km/h (1 Bft) S-SW 202 5 min 0,0 UV-I 8,6 C 25,7 C 2,4 km/h (1 Bft)
23.06.2014 17:30 20,2 C 24,8 C 20,3 C 25,4 C 25,4 C 5,2 C 47 % 51 % 100 % 1019,3 hPa 0,0 l/m 4,7 km/h (1 Bft) NW 315 5 min 0,0 UV-I 8,5 C 25,4 C 7,9 km/h (2 Bft)
23.06.2014 17:35 20,0 C 24,8 C 20,1 C 24,2 C 24,2 C 4,2 C 46 % 50 % 100 % 1019,3 hPa 0,0 l/m 4,8 km/h (1 Bft) S 180 5 min 0,0 UV-I 8,0 C 24,2 C 4,0 km/h (1 Bft)
23.06.2014 17:40 19,9 C 24,8 C 20,1 C 24,1 C 24,1 C 4,2 C 47 % 51 % 100 % 1019,3 hPa 0,0 l/m 4,7 km/h (1 Bft) S 180 5 min 0,0 UV-I 8,3 C 24,1 C 2,1 km/h (1 Bft)
23.06.2014 17:45 20,0 C 24,8 C 20,3 C 25,4 C 25,4 C 5,4 C 47 % 51 % 100 % 1019,3 hPa 0,0 l/m 3,1 km/h (1 Bft) W 270 5 min 0,0 UV-I 8,3 C 25,4 C 6,8 km/h (2 Bft)
23.06.2014 17:50 20,1 C 24,8 C 20,5 C 26,2 C 26,2 C 6,1 C 47 % 51 % 100 % 1019,3 hPa 0,0 l/m 3,2 km/h (1 Bft) W-SW 247 5 min 0,0 UV-I 8,4 C 26,2 C 5,5 km/h (1 Bft)
23.06.2014 17:55 20,1 C 24,8 C 20,5 C 26,2 C 26,2 C 6,1 C 47 % 49 % 100 % 1019,3 hPa 0,0 l/m 4,0 km/h (1 Bft) SW 225 5 min 0,0 UV-I 8,4 C 26,2 C 4,8 km/h (1 Bft)
23.06.2014 18:00 20,1 C 24,8 C 20,4 C 26,3 C 26,3 C 6,2 C 47 % 50 % 100 % 1019,2 hPa 0,0 l/m 4,2 km/h (1 Bft) W-SW 247 5 min 0,0 UV-I 8,4 C 26,3 C 5,1 km/h (1 Bft)
23.06.2014 18:05 20,0 C 24,8 C 20,3 C 25,4 C 25,4 C 5,4 C 47 % 50 % 100 % 1019,2 hPa 0,0 l/m 4,3 km/h (1 Bft) S 180 5 min 0,0 UV-I 8,3 C 25,4 C 3,9 km/h (1 Bft)
23.06.2014 18:10 19,9 C 24,9 C 20,0 C 24,0 C 24,0 C 4,1 C 47 % 50 % 100 % 1019,2 hPa 0,0 l/m 3,4 km/h (1 Bft) W 270 5 min 0,0 UV-I 8,3 C 24,0 C 0,0 km/h (0 Bft)
23.06.2014 18:15 19,8 C 24,9 C 19,9 C 24,3 C 24,3 C 4,5 C 46 % 49 % 100 % 1019,2 hPa 0,0 l/m 3,2 km/h (1 Bft) SW 225 5 min 0,0 UV-I 7,8 C 24,3 C 4,7 km/h (1 Bft)
23.06.2014 18:20 19,8 C 24,9 C 19,7 C 25,0 C 25,0 C 5,2 C 47 % 50 % 100 % 1018,8 hPa 0,0 l/m 3,1 km/h (1 Bft) S 180 5 min 0,0 UV-I 8,2 C 25,0 C 3,7 km/h (1 Bft)
23.06.2014 18:25 19,9 C 24,9 C 19,9 C 25,6 C 25,6 C 5,7 C 47 % 50 % 100 % 1018,8 hPa 0,0 l/m 2,9 km/h (1 Bft) W 270 5 min 0,0 UV-I 8,3 C 25,6 C 4,3 km/h (1 Bft)
23.06.2014 18:30 20,0 C 24,9 C 19,9 C 26,0 C 26,0 C 6,0 C 47 % 50 % 100 % 1018,8 hPa 0,0 l/m 1,9 km/h (1 Bft) SW 225 5 min 0,0 UV-I 8,3 C 26,0 C 3,4 km/h (1 Bft)
23.06.2014 18:35 20,0 C 24,9 C 19,9 C 25,7 C 25,7 C 5,7 C 47 % 51 % 100 % 1018,8 hPa 0,0 l/m 1,6 km/h (1 Bft) S 180 5 min 0,0 UV-I 8,3 C 25,7 C 1,8 km/h (1 Bft)
23.06.2014 18:40 20,0 C 24,9 C 20,0 C 26,1 C 26,1 C 6,1 C 46 % 51 % 100 % 1019,1 hPa 0,0 l/m 2,6 km/h (1 Bft) W 270 5 min 0,0 UV-I 8,0 C 26,1 C 6,4 km/h (2 Bft)
23.06.2014 18:45 19,9 C 24,9 C 19,9 C 25,8 C 25,8 C 5,9 C 46 % 50 % 100 % 1019,1 hPa 0,0 l/m 3,1 km/h (1 Bft) SO 135 5 min 0,0 UV-I 7,9 C 25,8 C 3,4 km/h (1 Bft)
23.06.2014 18:50 19,9 C 24,9 C 19,7 C 25,8 C 25,8 C 5,9 C 47 % 50 % 100 % 1019,1 hPa 0,0 l/m 2,4 km/h (1 Bft) W 270 5 min 0,0 UV-I 8,3 C 25,8 C 3,4 km/h (1 Bft)
23.06.2014 18:55 19,7 C 24,9 C 19,6 C 25,6 C 25,6 C 5,9 C 47 % 51 % 100 % 1019,1 hPa 0,0 l/m 2,4 km/h (1 Bft) S 180 5 min 0,0 UV-I 8,1 C 25,6 C 6,1 km/h (2 Bft)
23.06.2014 19:00 19,7 C 25,0 C 19,7 C 25,2 C 25,2 C 5,5 C 47 % 51 % 100 % 1019,0 hPa 0,0 l/m 3,4 km/h (1 Bft) S 180 5 min 0,0 UV-I 8,1 C 25,2 C 3,5 km/h (1 Bft)
23.06.2014 19:05 19,7 C 25,0 C 19,7 C 24,9 C 24,9 C 5,2 C 47 % 50 % 100 % 1019,0 hPa 0,0 l/m 3,7 km/h (1 Bft) W-SW 247 5 min 0,0 UV-I 8,1 C 24,9 C 4,8 km/h (1 Bft)
23.06.2014 19:10 19,7 C 25,0 C 19,6 C 24,8 C 24,8 C 5,1 C 47 % 51 % 100 % 1019,0 hPa 0,0 l/m 2,9 km/h (1 Bft) S 180 5 min 0,0 UV-I 8,1 C 24,8 C 0,0 km/h (0 Bft)
23.06.2014 19:15 19,6 C 25,0 C 19,6 C 24,6 C 24,6 C 5,0 C 47 % 51 % 100 % 1019,0 hPa 0,0 l/m 2,7 km/h (1 Bft) S 180 5 min 0,0 UV-I 8,0 C 24,6 C 3,1 km/h (1 Bft)
23.06.2014 19:20 19,6 C 25,0 C 19,7 C 24,1 C 24,1 C 4,5 C 47 % 51 % 100 % 1018,3 hPa 0,0 l/m 2,7 km/h (1 Bft) W-SW 247 5 min 0,0 UV-I 8,0 C 24,1 C 4,8 km/h (1 Bft)
23.06.2014 19:25 19,6 C 25,0 C 19,6 C 24,2 C 24,2 C 4,6 C 48 % 51 % 100 % 1018,3 hPa 0,0 l/m 2,1 km/h (1 Bft) SW 225 5 min 0,0 UV-I 8,3 C 24,2 C 5,8 km/h (2 Bft)
23.06.2014 19:30 19,7 C 25,0 C 19,3 C 23,7 C 23,7 C 4,0 C 48 % 51 % 100 % 1018,3 hPa 0,0 l/m 1,9 km/h (1 Bft) N-NO 22 5 min 0,0 UV-I 8,4 C 23,7 C 4,0 km/h (1 Bft)
23.06.2014 19:35 19,6 C 25,1 C 19,3 C 23,3 C 23,3 C 3,7 C 48 % 52 % 97 % 1018,3 hPa 0,0 l/m 1,8 km/h (1 Bft) N 360 5 min 0,0 UV-I 8,3 C 23,3 C 3,2 km/h (1 Bft)
23.06.2014 19:40 19,4 C 25,1 C 19,3 C 23,2 C 23,2 C 3,8 C 48 % 53 % 100 % 1018,5 hPa 0,0 l/m 1,4 km/h (1 Bft) W-SW 247 5 min 0,0 UV-I 8,1 C 23,2 C 0,0 km/h (0 Bft)
23.06.2014 19:45 19,6 C 25,1 C 19,1 C 22,9 C 22,9 C 3,3 C 48 % 53 % 87 % 1018,5 hPa 0,0 l/m 2,1 km/h (1 Bft) SW 225 5 min 0,0 UV-I 8,3 C 22,9 C 6,0 km/h (2 Bft)
23.06.2014 19:50 19,5 C 25,1 C 19,1 C 22,5 C 22,5 C 3,0 C 49 % 54 % 79 % 1018,5 hPa 0,0 l/m 2,6 km/h (1 Bft) W-SW 247 5 min 0,0 UV-I 8,5 C 22,5 C 2,9 km/h (1 Bft)
23.06.2014 19:55 19,4 C 25,1 C 18,9 C 22,2 C 22,2 C 2,8 C 49 % 53 % 74 % 1018,5 hPa 0,0 l/m 2,3 km/h (1 Bft) SW 225 5 min 0,0 UV-I 8,4 C 22,2 C 0,0 km/h (0 Bft)
23.06.2014 20:00 19,3 C 25,1 C 18,8 C 21,7 C 21,7 C 2,4 C 49 % 54 % 63 % 1018,6 hPa 0,0 l/m 1,1 km/h (1 Bft) NW 315 5 min 0,0 UV-I 8,3 C 21,7 C 4,3 km/h (1 Bft)
23.06.2014 20:01 19,2 C 25,1 C 18,7 C 21,3 C 21,3 C 2,1 C 50 % 54 % 55 % 1018,6 hPa 0,0 l/m 0,6 km/h (0 Bft) S-SW 202 1 min 0,0 UV-I 8,5 C 21,3 C 2,6 km/h (1 Bft)
23.06.2014 20:06 19,1 C 25,2 C 18,7 C 20,7 C 20,7 C 1,6 C 50 % 55 % 42 % 1018,6 hPa 0,0 l/m 0,8 km/h (0 Bft) W 270 0 min 0,0 UV-I 8,4 C 20,7 C 0,0 km/h (0 Bft)
23.06.2014 20:11 18,9 C 25,2 C 18,5 C 20,0 C 20,0 C 1,1 C 50 % 54 % 29 % 1018,6 hPa 0,0 l/m 0,8 km/h (0 Bft) NW 315 0 min 0,0 UV-I 8,2 C 20,0 C 0,0 km/h (0 Bft)
23.06.2014 20:16 18,7 C 25,2 C 18,1 C 19,1 C 19,1 C 0,4 C 50 % 54 % 11 % 1018,9 hPa 0,0 l/m 0,6 km/h (0 Bft) S-SO 157 0 min 0,0 UV-I 8,1 C 19,1 C 0,0 km/h (0 Bft)
23.06.2014 20:21 18,5 C 25,2 C 18,1 C 18,7 C 18,7 C 0,2 C 50 % 55 % 5 % 1018,9 hPa 0,0 l/m 0,3 km/h (0 Bft) NW 315 0 min 0,0 UV-I 7,9 C 18,7 C 0,0 km/h (0 Bft)
23.06.2014 20:26 18,4 C 25,2 C 17,9 C 18,3 C 18,1 C 0,0 C 51 % 55 % 0 % 1018,9 hPa 0,0 l/m 0,3 km/h (0 Bft) N 360 0 min 0,0 UV-I 8,1 C 18,1 C 2,1 km/h (1 Bft)
23.06.2014 20:56 17,9 C 25,2 C 17,5 C 17,6 C 17,0 C 0,0 C 53 % 58 % 0 % 1018,4 hPa 0,0 l/m 0,2 km/h (0 Bft) W 270 0 min 0,0 UV-I 8,2 C 17,0 C 0,0 km/h (0 Bft)
23.06.2014 21:00 17,7 C 25,2 C 17,1 C 17,4 C 16,7 C 0,0 C 55 % 60 % 0 % 1018,2 hPa 0,0 l/m 0,0 km/h (0 Bft) W-SW 247 0 min 0,0 UV-I 8,5 C 16,7 C 0,0 km/h (0 Bft)
23.06.2014 21:05 17,6 C 25,2 C 17,1 C 17,2 C 16,5 C 0,0 C 56 % 61 % 0 % 1018,2 hPa 0,0 l/m 0,0 km/h (0 Bft) SW 225 0 min 0,0 UV-I 8,7 C 16,5 C 0,0 km/h (0 Bft)
23.06.2014 21:10 17,5 C 25,2 C 16,7 C 17,0 C 16,1 C 0,0 C 57 % 62 % 0 % 1018,2 hPa 0,0 l/m 0,0 km/h (0 Bft) W 270 0 min 0,0 UV-I 8,9 C 16,1 C 0,0 km/h (0 Bft)
23.06.2014 21:15 17,2 C 25,2 C 16,5 C 16,7 C 15,8 C 0,0 C 58 % 63 % 0 % 1018,2 hPa 0,0 l/m 0,0 km/h (0 Bft) W-SW 247 0 min 0,0 UV-I 8,9 C 15,8 C 0,0 km/h (0 Bft)
23.06.2014 21:20 17,0 C 25,2 C 16,4 C 16,5 C 15,4 C 0,0 C 60 % 65 % 0 % 1018,6 hPa 0,0 l/m 0,0 km/h (0 Bft) S-SW 202 0 min 0,0 UV-I 9,2 C 15,4 C 0,0 km/h (0 Bft)
23.06.2014 21:25 16,9 C 25,2 C 16,3 C 16,3 C 15,2 C 0,0 C 61 % 66 % 0 % 1018,6 hPa 0,0 l/m 0,0 km/h (0 Bft) S-SW 202 0 min 0,0 UV-I 9,3 C 15,2 C 0,0 km/h (0 Bft)
23.06.2014 21:30 16,6 C 25,2 C 16,1 C 16,0 C 14,9 C 0,0 C 61 % 67 % 0 % 1018,6 hPa 0,0 l/m 0,0 km/h (0 Bft) S-SW 202 0 min 0,0 UV-I 9,0 C 14,9 C 0,0 km/h (0 Bft)
23.06.2014 21:35 16,5 C 25,2 C 15,9 C 15,9 C 14,7 C 0,0 C 61 % 67 % 0 % 1018,6 hPa 0,0 l/m 0,0 km/h (0 Bft) S-SW 202 0 min 0,0 UV-I 9,0 C 14,7 C 0,0 km/h (0 Bft)
23.06.2014 21:40 16,2 C 25,2 C 15,6 C 15,6 C 14,5 C 0,0 C 62 % 68 % 0 % 1018,9 hPa 0,0 l/m 0,0 km/h (0 Bft) S-SW 202 0 min 0,0 UV-I 8,9 C 14,5 C 0,0 km/h (0 Bft)
23.06.2014 21:45 16,1 C 25,2 C 15,6 C 15,5 C 14,4 C 0,0 C 63 % 68 % 0 % 1018,9 hPa 0,0 l/m 0,0 km/h (0 Bft) W-NW 292 0 min 0,0 UV-I 9,1 C 14,4 C 0,0 km/h (0 Bft)
23.06.2014 21:50 15,9 C 25,3 C 15,3 C 15,3 C 14,2 C 0,0 C 64 % 69 % 0 % 1018,9 hPa 0,0 l/m 0,0 km/h (0 Bft) O-SO 112 0 min 0,0 UV-I 9,1 C 14,2 C 0,0 km/h (0 Bft)
23.06.2014 21:55 15,7 C 25,3 C 15,1 C 15,1 C 14,0 C 0,0 C 64 % 69 % 0 % 1018,9 hPa 0,0 l/m 0,0 km/h (0 Bft) O-SO 112 0 min 0,0 UV-I 8,9 C 14,0 C 0,0 km/h (0 Bft)
23.06.2014 22:00 15,5 C 25,3 C 15,0 C 14,9 C 13,7 C 0,0 C 65 % 69 % 0 % 1018,8 hPa 0,0 l/m 0,0 km/h (0 Bft) O-SO 112 0 min 0,0 UV-I 8,9 C 13,7 C 0,0 km/h (0 Bft)
23.06.2014 22:05 15,3 C 25,3 C 14,8 C 14,7 C 13,5 C 0,0 C 65 % 70 % 0 % 1018,8 hPa 0,0 l/m 0,0 km/h (0 Bft) O-SO 112 0 min 0,0 UV-I 8,8 C 13,5 C 0,0 km/h (0 Bft)
23.06.2014 22:10 15,0 C 25,3 C 14,6 C 14,5 C 13,4 C 0,0 C 67 % 71 % 0 % 1018,8 hPa 0,0 l/m 0,0 km/h (0 Bft) O-NO 67 0 min 0,0 UV-I 8,9 C 13,4 C 0,0 km/h (0 Bft)
23.06.2014 22:15 14,8 C 25,3 C 14,5 C 14,3 C 13,3 C 0,0 C 67 % 72 % 0 % 1018,8 hPa 0,0 l/m 0,0 km/h (0 Bft) O-NO 67 0 min 0,0 UV-I 8,7 C 13,3 C 0,0 km/h (0 Bft)
23.06.2014 22:20 14,5 C 25,3 C 14,3 C 14,0 C 13,0 C 0,0 C 68 % 72 % 0 % 1018,4 hPa 0,0 l/m 0,0 km/h (0 Bft) S 180 0 min 0,0 UV-I 8,7 C 13,0 C 0,0 km/h (0 Bft)
23.06.2014 22:25 14,4 C 25,3 C 14,3 C 13,9 C 12,8 C 0,0 C 68 % 73 % 0 % 1018,4 hPa 0,0 l/m 0,0 km/h (0 Bft) W-SW 247 0 min 0,0 UV-I 8,6 C 12,8 C 0,0 km/h (0 Bft)
23.06.2014 22:30 14,2 C 25,3 C 14,0 C 13,6 C 12,5 C 0,0 C 69 % 73 % 0 % 1018,4 hPa 0,0 l/m 0,0 km/h (0 Bft) W-SW 247 0 min 0,0 UV-I 8,6 C 12,5 C 0,0 km/h (0 Bft)
23.06.2014 22:35 14,1 C 25,3 C 13,9 C 13,5 C 12,4 C 0,0 C 70 % 73 % 0 % 1018,4 hPa 0,0 l/m 0,0 km/h (0 Bft) SO 135 0 min 0,0 UV-I 8,7 C 12,4 C 0,0 km/h (0 Bft)
23.06.2014 22:40 13,9 C 25,3 C 13,7 C 13,3 C 12,2 C 0,0 C 70 % 74 % 0 % 1018,6 hPa 0,0 l/m 0,0 km/h (0 Bft) SO 135 0 min 0,0 UV-I 8,5 C 12,2 C 0,0 km/h (0 Bft)
23.06.2014 22:45 13,7 C 25,3 C 13,6 C 13,1 C 12,0 C 0,0 C 71 % 74 % 0 % 1018,6 hPa 0,0 l/m 0,0 km/h (0 Bft) N-NW 337 0 min 0,0 UV-I 8,5 C 12,0 C 0,0 km/h (0 Bft)
23.06.2014 22:50 13,5 C 25,3 C 13,5 C 13,0 C 11,9 C 0,0 C 71 % 74 % 0 % 1018,6 hPa 0,0 l/m 0,0 km/h (0 Bft) O-NO 67 0 min 0,0 UV-I 8,3 C 11,9 C 0,0 km/h (0 Bft)
23.06.2014 22:55 13,4 C 25,3 C 13,3 C 12,8 C 11,7 C 0,0 C 72 % 74 % 0 % 1018,6 hPa 0,0 l/m 0,0 km/h (0 Bft) N 360 0 min 0,0 UV-I 8,5 C 11,7 C 0,0 km/h (0 Bft)
23.06.2014 23:00 13,2 C 25,3 C 13,1 C 12,6 C 11,4 C 0,0 C 72 % 75 % 0 % 1019,1 hPa 0,0 l/m 0,2 km/h (0 Bft) NW 315 0 min 0,0 UV-I 8,3 C 11,4 C 2,7 km/h (1 Bft)
23.06.2014 23:05 13,1 C 25,3 C 13,0 C 12,5 C 11,4 C 0,0 C 73 % 75 % 0 % 1019,1 hPa 0,0 l/m 0,3 km/h (0 Bft) W-SW 247 0 min 0,0 UV-I 8,4 C 11,4 C 0,0 km/h (0 Bft)
23.06.2014 23:10 12,8 C 25,4 C 13,0 C 12,3 C 11,4 C 0,0 C 74 % 76 % 0 % 1019,1 hPa 0,0 l/m 0,3 km/h (0 Bft) NO 45 0 min 0,0 UV-I 8,3 C 11,4 C 0,0 km/h (0 Bft)
23.06.2014 23:15 12,7 C 25,4 C 12,8 C 12,2 C 11,3 C 0,0 C 74 % 76 % 0 % 1019,1 hPa 0,0 l/m 0,0 km/h (0 Bft) N-NW 337 0 min 0,0 UV-I 8,2 C 11,3 C 0,0 km/h (0 Bft)
23.06.2014 23:20 12,7 C 25,4 C 12,8 C 12,2 C 11,1 C 0,0 C 75 % 76 % 0 % 1018,7 hPa 0,0 l/m 0,0 km/h (0 Bft) SO 135 0 min 0,0 UV-I 8,4 C 11,1 C 0,0 km/h (0 Bft)
23.06.2014 23:25 12,5 C 25,4 C 12,7 C 12,0 C 11,0 C 0,0 C 75 % 77 % 0 % 1018,7 hPa 0,0 l/m 0,0 km/h (0 Bft) W-SW 247 0 min 0,0 UV-I 8,2 C 11,0 C 0,0 km/h (0 Bft)
23.06.2014 23:30 12,3 C 25,4 C 12,5 C 11,8 C 10,8 C 0,0 C 75 % 77 % 0 % 1018,7 hPa 0,0 l/m 0,0 km/h (0 Bft) W-NW 292 0 min 0,0 UV-I 8,0 C 10,8 C 0,0 km/h (0 Bft)
23.06.2014 23:35 12,2 C 25,3 C 12,4 C 11,7 C 10,6 C 0,0 C 76 % 77 % 0 % 1018,7 hPa 0,0 l/m 0,0 km/h (0 Bft) W-NW 292 0 min 0,0 UV-I 8,1 C 10,6 C 0,0 km/h (0 Bft)
23.06.2014 23:40 12,1 C 25,3 C 12,3 C 11,5 C 10,4 C 0,0 C 76 % 77 % 0 % 1018,7 hPa 0,0 l/m 0,0 km/h (0 Bft) W-NW 292 0 min 0,0 UV-I 8,0 C 10,4 C 0,0 km/h (0 Bft)
23.06.2014 23:45 12,0 C 25,4 C 12,2 C 11,4 C 10,3 C 0,0 C 76 % 77 % 0 % 1018,7 hPa 0,0 l/m 0,0 km/h (0 Bft) W-NW 292 0 min 0,0 UV-I 7,9 C 10,3 C 0,0 km/h (0 Bft)
23.06.2014 23:50 11,9 C 25,4 C 12,0 C 11,3 C 10,1 C 0,0 C 76 % 78 % 0 % 1018,7 hPa 0,0 l/m 0,0 km/h (0 Bft) W-NW 292 0 min 0,0 UV-I 7,8 C 10,1 C 0,0 km/h (0 Bft)
23.06.2014 23:55 11,7 C 25,4 C 12,0 C 11,1 C 10,0 C 0,0 C 77 % 78 % 0 % 1018,7 hPa 0,0 l/m 0,0 km/h (0 Bft) W-NW 292 0 min 0,0 UV-I 7,8 C 10,0 C 0,0 km/h (0 Bft)
_ Min-Zeit 06:20 11:30 05:40 05:45 05:45 00:00 16:55 16:20 00:00 21:00 - 00:00 - - - 00:00 06:20 05:45 00:00
Minimum _ 7,8 C 24,3 C 9,5 C 7,8 C 7,5 C 0,0 C 44 % 49 % 0 % 1018,2 hPa - 0,0 km/h (0 Bft) - - - 0,0 UV-I 5,6 C 7,5 C 0,0 km/h (0 Bft)
_ Max-Zeit 16:45 23:10 16:35 18:00 18:00 07:20 07:20 05:30 07:00 09:40 00:00 12:15 - - 16:11 07:30 15:50 18:00 12:30
Maximum _ 21,7 C 25,4 C 20,7 C 26,3 C 26,3 C 10,3 C 88 % 85 % 100 % 1021,8 hPa 0,0 l/m 5,8 km/h
SW (2 Bft)
- - 6 min 0,3 UV-I 9,7 C 26,3 C 16,3 km/h
S (3 Bft)
Durchschnitt _ 14,8 C 24,8 C 15,1 C 17,4 C 17,1 C 2,7 C 66 % 68 % 53 % 1020,1 hPa #0,0 l/m 1,9 km/h (1 Bft) S - #12:01 h 0,2 UV-I 8,2 C 17,1 C 2,6 km/h (1 Bft)
2014 www.wetterstation-wechselburg.de